Voltar ao catálogo

SS 3

AtivoCiênciaLEO
NORAD 10594·PAYLOAD·🇺🇸 United States

Lançado Dec 8, 1977 de Vandenberg Space Force Base

Loading…

Próximas Passagens (próximas 24 horas)

TLE

AtualizadoSource: Space-Track

Época: Sep 14, 2026, 07:57 UTC

1 10594U 77112F   26257.33138664  .00000172  00000-0  74610-4 0  9995
2 10594  63.3315 279.2069 0472840 165.1381 196.4146 14.03196299379809

Acompanhe SS 3 em tempo real com AllMySat

Download on the App Store